• în Republica Moldova
  • Lista ţărilor
  • Pe 7 zile
  • Temperatura apei
  • Hartă satelitară
  • Meteo pe hartă
  • Widget-uri
  • user-avatar
    Intrare

    Meteo pe oră la Albany

    Astăzi, 20 Ianuarie, Vineri

    Timp Temperatura Precipitaţii Vânt Presiune Umiditate
    00:00 +14°C° 0 mm 2 m/s 756 mmHg 79%
    01:00 +14°C° 0 mm 2 m/s 756 mmHg 81%
    02:00 +13°C° 0 mm 1 m/s 756 mmHg 84%
    03:00 +13°C° 0 mm 1 m/s 756 mmHg 86%
    04:00 +12°C° 0 mm 1 m/s 756 mmHg 88%
    05:00 +12°C° 0 mm 1 m/s 756 mmHg 90%
    06:00 +15°C° 0 mm 1 m/s 756 mmHg 79%
    07:00 +18°C° 0 mm 1 m/s 756 mmHg 68%
    08:00 +21°C° 0 mm 1 m/s 756 mmHg 57%
    09:00 +23°C° 0 mm 1 m/s 756 mmHg 51%
    10:00 +25°C° 0 mm 2 m/s 755 mmHg 45%
    11:00 +27°C° 0 mm 2 m/s 755 mmHg 39%
    12:00 +27°C° 0 mm 2 m/s 755 mmHg 41%
    13:00 +27°C° 0 mm 3 m/s 755 mmHg 42%
    14:00 +26°C° 0 mm 3 m/s 755 mmHg 46%
    15:00 +25°C° 0 mm 3 m/s 754 mmHg 49%
    16:00 +25°C° 0 mm 3 m/s 754 mmHg 52%
    17:00 +24°C° 0 mm 3 m/s 754 mmHg 56%
    18:00 +21°C° 0 mm 2 m/s 754 mmHg 64%
    19:00 +19°C° 0 mm 2 m/s 754 mmHg 72%
    20:00 +18°C° 0 mm 1 m/s 754 mmHg 83%
    21:00 +16°C° 0 mm 2 m/s 754 mmHg 84%
    22:00 +16°C° 0 mm 2 m/s 754 mmHg 85%
    23:00 +16°C° 0 mm 2 m/s 755 mmHg 86%

    Mâine, 21 Ianuarie, Sâmbătă

    Timp Temperatura Precipitaţii Vânt Presiune Umiditate
    00:00 +15°C° 0 mm 2 m/s 754 mmHg 86%
    01:00 +15°C° 0 mm 2 m/s 754 mmHg 86%
    02:00 +15°C° 0 mm 2 m/s 754 mmHg 86%
    03:00 +14°C° 0 mm 2 m/s 754 mmHg 87%
    04:00 +14°C° 0 mm 2 m/s 754 mmHg 87%
    05:00 +14°C° 0 mm 2 m/s 753 mmHg 88%
    06:00 +18°C° 0 mm 1 m/s 754 mmHg 76%
    07:00 +20°C° 0 mm 1 m/s 754 mmHg 65%
    08:00 +23°C° 0 mm 1 m/s 754 mmHg 53%
    09:00 +25°C° 0 mm 1 m/s 753 mmHg 49%
    10:00 +27°C° 0 mm 2 m/s 753 mmHg 45%
    11:00 +29°C° 0 mm 2 m/s 753 mmHg 40%
    12:00 +29°C° 0 mm 3 m/s 752 mmHg 43%
    13:00 +28°C° 0 mm 3 m/s 752 mmHg 46%
    14:00 +28°C° 0 mm 4 m/s 751 mmHg 49%
    15:00 +26°C° 0 mm 4 m/s 751 mmHg 54%
    16:00 +25°C° 0 mm 4 m/s 751 mmHg 59%
    17:00 +23°C° 0 mm 4 m/s 751 mmHg 64%
    18:00 +21°C° 0 mm 3 m/s 751 mmHg 71%
    19:00 +19°C° 0 mm 3 m/s 752 mmHg 77%
    20:00 +18°C° 0 mm 2 m/s 752 mmHg 84%
    21:00 +17°C° 0 mm 2 m/s 752 mmHg 87%
    22:00 +17°C° 0 mm 2 m/s 752 mmHg 90%
    23:00 +16°C° 0 mm 1 m/s 753 mmHg 94%

    Poimâine, 22 Ianuarie, Duminică

    Timp Temperatura Precipitaţii Vânt Presiune Umiditate
    00:00 +16°C° 0 mm 2 m/s 752 mmHg 94%
    01:00 +15°C° 0 mm 2 m/s 752 mmHg 94%
    02:00 +15°C° 0 mm 2 m/s 752 mmHg 94%
    03:00 +15°C° 0 mm 2 m/s 752 mmHg 94%
    04:00 +15°C° 0 mm 2 m/s 752 mmHg 94%
    05:00 +15°C° 0 mm 2 m/s 752 mmHg 93%
    06:00 +16°C° 0 mm 3 m/s 752 mmHg 89%
    07:00 +18°C° 0 mm 4 m/s 752 mmHg 84%
    08:00 +19°C° 0 mm 4 m/s 753 mmHg 79%
    09:00 +19°C° 0,1 mm 4 m/s 753 mmHg 77%
    10:00 +19°C° 0,1 mm 5 m/s 753 mmHg 75%
    11:00 +19°C° 0,1 mm 5 m/s 753 mmHg 73%
    12:00 +19°C° 0 mm 5 m/s 753 mmHg 69%
    13:00 +19°C° 0 mm 5 m/s 753 mmHg 64%
    14:00 +20°C° 0 mm 6 m/s 753 mmHg 60%
    15:00 +20°C° 0 mm 6 m/s 753 mmHg 59%
    16:00 +19°C° 0 mm 6 m/s 753 mmHg 59%
    17:00 +19°C° 0 mm 6 m/s 753 mmHg 58%
    18:00 +17°C° 0 mm 6 m/s 753 mmHg 61%
    19:00 +16°C° 0 mm 5 m/s 754 mmHg 64%
    20:00 +16°C° 0 mm 5 m/s 754 mmHg 68%
    21:00 +15°C° 0 mm 5 m/s 754 mmHg 70%
    22:00 +14°C° 0 mm 4 m/s 755 mmHg 73%
    23:00 +14°C° 0 mm 4 m/s 755 mmHg 76%

    23 Ianuarie, Luni

    Timp Temperatura Precipitaţii Vânt Presiune Umiditate
    00:00 +14°C° 0 mm 4 m/s 755 mmHg 78%
    01:00 +13°C° 0 mm 5 m/s 755 mmHg 80%
    02:00 +13°C° 0 mm 5 m/s 755 mmHg 82%
    03:00 +13°C° 0,1 mm 5 m/s 755 mmHg 81%
    04:00 +14°C° 0,1 mm 5 m/s 755 mmHg 80%
    05:00 +14°C° 0,1 mm 5 m/s 756 mmHg 79%
    06:00 +15°C° 0 mm 6 m/s 756 mmHg 71%
    07:00 +16°C° 0 mm 6 m/s 757 mmHg 64%
    08:00 +17°C° 0 mm 6 m/s 758 mmHg 56%
    09:00 +17°C° 0 mm 5 m/s 758 mmHg 54%
    10:00 +17°C° 0 mm 5 m/s 758 mmHg 52%
    11:00 +19°C° 0 mm 5 m/s 758 mmHg 50%
    12:00 +19°C° 0 mm 5 m/s 758 mmHg 49%
    13:00 +20°C° 0 mm 5 m/s 758 mmHg 47%
    14:00 +20°C° 0 mm 5 m/s 758 mmHg 46%
    15:00 +20°C° 0 mm 5 m/s 759 mmHg 47%
    16:00 +20°C° 0 mm 5 m/s 759 mmHg 48%
    17:00 +19°C° 0 mm 5 m/s 759 mmHg 49%
    18:00 +18°C° 0 mm 4 m/s 760 mmHg 55%
    19:00 +16°C° 0 mm 3 m/s 760 mmHg 60%
    20:00 +14°C° 0 mm 3 m/s 761 mmHg 66%
    21:00 +14°C° 0 mm 2 m/s 761 mmHg 70%
    22:00 +13°C° 0 mm 2 m/s 761 mmHg 74%
    23:00 +12°C° 0 mm 1 m/s 762 mmHg 79%

    24 Ianuarie, Marţi

    Timp Temperatura Precipitaţii Vânt Presiune Umiditate
    00:00 +12°C° 0 mm 1 m/s 761 mmHg 81%
    01:00 +11°C° 0 mm 1 m/s 761 mmHg 84%
    02:00 +11°C° 0 mm 1 m/s 761 mmHg 87%
    03:00 +11°C° 0 mm 1 m/s 761 mmHg 87%
    04:00 +11°C° 0 mm 1 m/s 761 mmHg 88%
    05:00 +10°C° 0 mm 2 m/s 761 mmHg 88%
    06:00 +13°C° 0 mm 2 m/s 761 mmHg 78%
    07:00 +16°C° 0 mm 2 m/s 762 mmHg 68%
    08:00 +18°C° 0 mm 3 m/s 762 mmHg 58%
    09:00 +20°C° 0 mm 2 m/s 762 mmHg 50%
    10:00 +24°C° 0 mm 2 m/s 761 mmHg 43%
    11:00 +27°C° 0 mm 2 m/s 761 mmHg 36%
    12:00 +27°C° 0 mm 3 m/s 761 mmHg 36%
    13:00 +28°C° 0 mm 4 m/s 760 mmHg 36%
    14:00 +29°C° 0 mm 4 m/s 760 mmHg 35%
    15:00 +27°C° 0 mm 5 m/s 759 mmHg 41%
    16:00 +26°C° 0 mm 5 m/s 759 mmHg 47%
    17:00 +23°C° 0 mm 5 m/s 759 mmHg 53%
    18:00 +22°C° 0 mm 5 m/s 760 mmHg 61%
    19:00 +20°C° 0 mm 4 m/s 761 mmHg 68%
    20:00 +18°C° 0 mm 4 m/s 761 mmHg 75%
    21:00 +18°C° 0 mm 4 m/s 761 mmHg 79%
    22:00 +17°C° 0 mm 3 m/s 762 mmHg 82%
    23:00 +17°C° 0 mm 3 m/s 762 mmHg 86%

    25 Ianuarie, Miercuri

    Timp Temperatura Precipitaţii Vânt Presiune Umiditate
    00:00 +16°C° 0 mm 3 m/s 761 mmHg 87%
    01:00 +16°C° 0 mm 3 m/s 761 mmHg 89%
    02:00 +16°C° 0 mm 3 m/s 761 mmHg 90%
    03:00 +16°C° 0 mm 3 m/s 761 mmHg 91%
    04:00 +16°C° 0 mm 3 m/s 761 mmHg 91%
    05:00 +16°C° 0 mm 3 m/s 761 mmHg 92%
    06:00 +18°C° 0 mm 3 m/s 761 mmHg 84%
    07:00 +20°C° 0 mm 3 m/s 761 mmHg 77%
    08:00 +21°C° 0 mm 4 m/s 762 mmHg 69%
    09:00 +25°C° 0 mm 4 m/s 761 mmHg 62%
    10:00 +27°C° 0 mm 4 m/s 761 mmHg 54%
    11:00 +29°C° 0 mm 4 m/s 761 mmHg 47%
    12:00 +30°C° 0 mm 4 m/s 760 mmHg 46%
    13:00 +32°C° 0 mm 5 m/s 760 mmHg 44%
    14:00 +33°C° 0 mm 5 m/s 759 mmHg 43%
    15:00 +30°C° 0 mm 5 m/s 759 mmHg 50%
    16:00 +28°C° 0 mm 6 m/s 759 mmHg 56%
    17:00 +26°C° 0 mm 6 m/s 759 mmHg 63%
    18:00 +23°C° 0 mm 5 m/s 759 mmHg 69%
    19:00 +22°C° 0 mm 5 m/s 760 mmHg 76%
    20:00 +20°C° 0 mm 4 m/s 760 mmHg 83%
    21:00 +20°C° 0 mm 4 m/s 761 mmHg 86%
    22:00 +19°C° 0 mm 4 m/s 761 mmHg 88%
    23:00 +19°C° 0 mm 4 m/s 761 mmHg 91%
    Arată mai mult